• En Colombia
  • Lista de países
  • Para 7 días
  • Temperatura del agua
  • El tiempo en el mapa
  • Informadores
  • user-avatar
    Iniciar sesión

    Tiempo cada hora Karlovi Vari

    Hoy, 12 Diciembre, Jueves

    Tiempo Temperatura Precipitaciones Viento Presión Humedad
    00:00 -3°C° 0.1 mm 2 mps 690 mmHg 89%
    01:00 -3°C° 0.1 mm 2 mps 689 mmHg 92%
    02:00 -3°C° 0.2 mm 2 mps 689 mmHg 94%
    03:00 -2°C° 0.2 mm 2 mps 689 mmHg 95%
    04:00 -2°C° 0.2 mm 2 mps 689 mmHg 97%
    05:00 -2°C° 0.4 mm 2 mps 689 mmHg 97%
    06:00 -2°C° 0.4 mm 2 mps 689 mmHg 97%
    07:00 -1°C° 0.4 mm 3 mps 689 mmHg 97%
    08:00 -1°C° 0 mm 2 mps 689 mmHg 96%
    09:00 -1°C° 0 mm 2 mps 689 mmHg 95%
    10:00 -1°C° 0 mm 2 mps 689 mmHg 94%
    11:00 -1°C° 0.1 mm 2 mps 689 mmHg 94%
    12:00 -1°C° 0.1 mm 2 mps 689 mmHg 95%
    13:00 -1°C° 0.1 mm 3 mps 689 mmHg 95%
    14:00 -1°C° 0.1 mm 3 mps 688 mmHg 96%
    15:00 -1°C° 0.1 mm 3 mps 688 mmHg 97%
    16:00 -1°C° 0.1 mm 3 mps 688 mmHg 97%
    17:00 -2°C° 0.1 mm 2 mps 687 mmHg 97%
    18:00 -2°C° 0.1 mm 2 mps 687 mmHg 97%
    19:00 -2°C° 0.1 mm 2 mps 687 mmHg 97%
    20:00 -2°C° 0 mm 2 mps 686 mmHg 96%
    21:00 -2°C° 0 mm 2 mps 685 mmHg 95%
    22:00 -3°C° 0 mm 2 mps 684 mmHg 95%
    23:00 -4°C° 0 mm 3 mps 683 mmHg 93%

    Mañana, 13 Diciembre, Viernes

    Tiempo Temperatura Precipitaciones Viento Presión Humedad
    00:00 -4°C° 0 mm 4 mps 682 mmHg 92%
    01:00 -4°C° 0 mm 4 mps 681 mmHg 90%
    02:00 -4°C° 0 mm 4 mps 680 mmHg 90%
    03:00 -4°C° 0 mm 4 mps 679 mmHg 90%
    04:00 -5°C° 0 mm 4 mps 677 mmHg 90%
    05:00 -5°C° 0 mm 4 mps 676 mmHg 90%
    06:00 -5°C° 0 mm 3 mps 675 mmHg 91%
    07:00 -6°C° 0 mm 3 mps 675 mmHg 91%
    08:00 -5°C° 0 mm 3 mps 674 mmHg 88%
    09:00 -4°C° 0 mm 4 mps 674 mmHg 86%
    10:00 -4°C° 0 mm 4 mps 674 mmHg 84%
    11:00 -3°C° 0.2 mm 4 mps 674 mmHg 87%
    12:00 -3°C° 0.2 mm 4 mps 674 mmHg 90%
    13:00 -3°C° 0.2 mm 4 mps 674 mmHg 93%
    14:00 -2°C° 0.3 mm 5 mps 674 mmHg 94%
    15:00 -2°C° 0.3 mm 5 mps 675 mmHg 95%
    16:00 -2°C° 0.3 mm 5 mps 675 mmHg 97%
    17:00 -3°C° 0.3 mm 6 mps 676 mmHg 96%
    18:00 -3°C° 0.3 mm 6 mps 676 mmHg 95%
    19:00 -3°C° 0.3 mm 6 mps 677 mmHg 95%
    20:00 -3°C° 0.2 mm 6 mps 678 mmHg 95%
    21:00 -3°C° 0.2 mm 6 mps 678 mmHg 96%
    22:00 -3°C° 0.2 mm 6 mps 679 mmHg 96%
    23:00 -3°C° 0.2 mm 6 mps 680 mmHg 95%

    Pasado mañana, 14 Diciembre, Sábado

    Tiempo Temperatura Precipitaciones Viento Presión Humedad
    00:00 -3°C° 0.2 mm 6 mps 681 mmHg 93%
    01:00 -3°C° 0.2 mm 6 mps 681 mmHg 91%
    02:00 -3°C° 0.2 mm 6 mps 682 mmHg 93%
    03:00 -3°C° 0.2 mm 6 mps 682 mmHg 94%
    04:00 -4°C° 0.2 mm 7 mps 682 mmHg 96%
    05:00 -4°C° 0.2 mm 6 mps 683 mmHg 94%
    06:00 -4°C° 0.2 mm 6 mps 683 mmHg 92%
    07:00 -4°C° 0.2 mm 6 mps 683 mmHg 90%
    08:00 -4°C° 0.3 mm 6 mps 683 mmHg 92%
    09:00 -3°C° 0.3 mm 6 mps 683 mmHg 94%
    10:00 -3°C° 0.3 mm 6 mps 682 mmHg 96%
    11:00 -2°C° 0.6 mm 6 mps 683 mmHg 92%
    12:00 -1°C° 0.6 mm 7 mps 683 mmHg 87%
    13:00 0°C° 0.6 mm 8 mps 683 mmHg 83%
    14:00 0°C° 0 mm 7 mps 684 mmHg 83%
    15:00 -1°C° 0 mm 7 mps 685 mmHg 82%
    16:00 -1°C° 0 mm 6 mps 686 mmHg 82%
    17:00 -2°C° 0 mm 6 mps 686 mmHg 85%
    18:00 -1°C° 0 mm 5 mps 687 mmHg 87%
    19:00 -2°C° 0 mm 4 mps 687 mmHg 90%
    20:00 -2°C° 0 mm 4 mps 688 mmHg 91%
    21:00 -1°C° 0 mm 4 mps 688 mmHg 92%
    22:00 -1°C° 0 mm 4 mps 688 mmHg 93%
    23:00 0°C° 0.2 mm 4 mps 688 mmHg 94%

    15 Diciembre, Domingo

    Tiempo Temperatura Precipitaciones Viento Presión Humedad
    00:00 +2°C° 0.2 mm 3 mps 688 mmHg 95%
    01:00 +2°C° 0.2 mm 3 mps 689 mmHg 97%
    02:00 +2°C° 0.6 mm 3 mps 689 mmHg 97%
    03:00 +2°C° 0.6 mm 3 mps 688 mmHg 97%
    04:00 +2°C° 0.6 mm 3 mps 688 mmHg 97%
    05:00 +3°C° 0.9 mm 4 mps 688 mmHg 96%
    06:00 +3°C° 0.9 mm 5 mps 688 mmHg 94%
    07:00 +3°C° 0.9 mm 5 mps 687 mmHg 93%
    08:00 +4°C° 0.5 mm 6 mps 688 mmHg 91%
    09:00 +4°C° 0.5 mm 6 mps 688 mmHg 90%
    10:00 +4°C° 0.5 mm 7 mps 689 mmHg 88%
    11:00 +4°C° 1 mm 7 mps 690 mmHg 88%
    12:00 +3°C° 1 mm 7 mps 690 mmHg 88%
    13:00 +2°C° 1 mm 8 mps 691 mmHg 87%
    14:00 +2°C° 0.2 mm 7 mps 692 mmHg 86%
    15:00 +2°C° 0.2 mm 5 mps 692 mmHg 85%
    16:00 +1°C° 0.2 mm 4 mps 693 mmHg 83%
    17:00 0°C° 0 mm 4 mps 694 mmHg 86%
    18:00 +1°C° 0 mm 3 mps 694 mmHg 89%
    19:00 +1°C° 0 mm 2 mps 695 mmHg 92%
    20:00 +2°C° 0 mm 2 mps 695 mmHg 91%
    21:00 +1°C° 0 mm 3 mps 695 mmHg 90%
    22:00 +1°C° 0 mm 3 mps 695 mmHg 89%
    23:00 +1°C° 0 mm 3 mps 696 mmHg 90%

    16 Diciembre, Lunes

    Tiempo Temperatura Precipitaciones Viento Presión Humedad
    00:00 +1°C° 0 mm 3 mps 696 mmHg 91%
    01:00 +2°C° 0 mm 2 mps 696 mmHg 92%
    02:00 +3°C° 0 mm 2 mps 696 mmHg 93%
    03:00 +3°C° 0 mm 2 mps 696 mmHg 94%
    04:00 +2°C° 0 mm 3 mps 696 mmHg 95%
    05:00 +3°C° 0 mm 2 mps 696 mmHg 96%
    06:00 +2°C° 0 mm 2 mps 696 mmHg 96%
    07:00 +2°C° 0 mm 2 mps 695 mmHg 96%
    08:00 +3°C° 0.1 mm 2 mps 695 mmHg 96%
    09:00 +3°C° 0.1 mm 2 mps 695 mmHg 95%
    10:00 +3°C° 0.1 mm 2 mps 695 mmHg 95%
    11:00 +4°C° 0 mm 2 mps 695 mmHg 91%
    12:00 +5°C° 0 mm 2 mps 695 mmHg 87%
    13:00 +4°C° 0 mm 3 mps 695 mmHg 83%
    14:00 +5°C° 0 mm 2 mps 694 mmHg 85%
    15:00 +4°C° 0 mm 2 mps 694 mmHg 86%
    16:00 +4°C° 0 mm 1 mps 694 mmHg 88%
    17:00 +4°C° 0 mm 1 mps 694 mmHg 87%
    18:00 +3°C° 0 mm 1 mps 693 mmHg 87%
    19:00 +3°C° 0 mm 1 mps 693 mmHg 86%
    20:00 +3°C° 0 mm 1 mps 693 mmHg 87%
    21:00 +3°C° 0 mm 1 mps 693 mmHg 88%
    22:00 +3°C° 0 mm 1 mps 693 mmHg 89%
    23:00 +3°C° 0 mm 1 mps 693 mmHg 90%

    17 Diciembre, Martes

    Tiempo Temperatura Precipitaciones Viento Presión Humedad
    00:00 +2°C° 0 mm 1 mps 693 mmHg 91%
    01:00 +2°C° 0 mm 1 mps 692 mmHg 92%
    02:00 +2°C° 0 mm 1 mps 692 mmHg 92%
    03:00 +2°C° 0 mm 1 mps 692 mmHg 92%
    04:00 +1°C° 0 mm 1 mps 692 mmHg 91%
    05:00 +1°C° 0 mm 1 mps 692 mmHg 91%
    06:00 -1°C° 0 mm 2 mps 692 mmHg 91%
    07:00 -1°C° 0 mm 2 mps 692 mmHg 91%
    08:00 +2°C° 0 mm 1 mps 693 mmHg 89%
    09:00 +2°C° 0 mm 1 mps 693 mmHg 88%
    10:00 +3°C° 0 mm 1 mps 694 mmHg 86%
    11:00 +4°C° 0 mm 1 mps 693 mmHg 84%
    12:00 +5°C° 0 mm 1 mps 693 mmHg 83%
    13:00 +5°C° 0 mm 1 mps 693 mmHg 81%
    14:00 +5°C° 0 mm 1 mps 693 mmHg 82%
    15:00 +4°C° 0 mm 1 mps 693 mmHg 84%
    16:00 +4°C° 0 mm 1 mps 693 mmHg 85%
    17:00 +3°C° 0 mm 1 mps 693 mmHg 85%
    18:00 +3°C° 0 mm 1 mps 693 mmHg 85%
    19:00 +3°C° 0 mm 1 mps 693 mmHg 85%
    20:00 +3°C° 0 mm 1 mps 694 mmHg 86%
    21:00 +2°C° 0 mm 2 mps 694 mmHg 87%
    22:00 +2°C° 0 mm 2 mps 695 mmHg 88%
    23:00 +2°C° 0 mm 2 mps 695 mmHg 89%
    Mostrar más